+ View the NASA Portal
+ Center for Near-Earth Object Studies
IMPORTANT:
The SSD Announcement email list is now available. Major changes are coming in the near future, including possible hostname and/or URL changes. To be notified of such changes, subscribe to this email list.
Please visit
this page
for more details.
Don't show this message again
JPL Small-Body Database Browser
Search:
[
help
]
452904 (2006 UB281)
Classification:
Main-belt Asteroid
SPK-ID:
2452904
[
Ephemeris
|
Orbit Diagram
|
Orbital Elements
|
Mission Design
|
Physical Parameters
|
Discovery Circumstances
]
[ show orbit diagram ]
Orbital Elements at Epoch 2458600.5 (2019-Apr-27.0) TDB
Reference:
JPL 11
(heliocentric ecliptic J2000)
Element
Value
Uncertainty (1-sigma)
Units
e
.187157011559244
1.8235e-07
a
2.732680935254284
3.9251e-08
au
q
2.221240537867172
5.1059e-07
au
i
3.167341007744161
1.2105e-05
deg
node
198.8025187417628
0.00018032
deg
peri
224.4324965754485
0.00019262
deg
M
262.8258981650874
5.3697e-05
deg
t
p
2459045.879118817924
(2020-Jul-15.37911882)
0.00025015
TDB
period
1649.991919110767
4.52
3.5549e-05
9.733e-08
d
yr
n
.2181828867343881
4.7008e-09
deg/d
Q
3.244121332641396
4.6597e-08
au
Orbit Determination Parameters
# obs. used (total)
59
data-arc span
4719 days (12.92 yr)
first obs. used
2006-09-26
last obs. used
2019-08-28
planetary ephem.
DE431
SB-pert. ephem.
SB431-N16
condition code
0
norm. resid. RMS
.67084
source
ORB
producer
Otto Matic
solution date
2019-Sep-24 07:57:27
Additional Information
Earth MOID
= 1.23538 au
Jupiter MOID
= 2.08671 au
T_jup
= 3.326
[ show covariance matrix ]
[
Ephemeris
|
Orbit Diagram
|
Orbital Elements
|
Mission Design
|
Physical Parameters
|
Discovery Circumstances
]
Physical Parameter Table
Parameter
Symbol
Value
Units
Sigma
Reference
Notes
absolute magnitude
H
18.1
n/a
MPO357447
452904 (2006 UB281)
Discovered 2006-Sep-26 by Mt. Lemmon Survey at Mount Lemmon
Reference:
Last Updated:
2016-01-04
[
Ephemeris
|
Orbit Diagram
|
Orbital Elements
|
Mission Design
|
Physical Parameters
|
Discovery Circumstances
]
2019-Dec-11 23:23 UT
(server date/time)
Site Manager:
Ryan S. Park
Webmaster
:
Alan B. Chamberlin